TimeEET,TemperatureF,Dew PointF,Humidity,Sea Level PressureIn,VisibilityMPH,Wind Direction,Wind SpeedMPH,Gust SpeedMPH,PrecipitationIn,Events,Conditions,WindDirDegrees,DateUTC
12:20 AM,64.4,55.4,73,29.98,3.1,NNW,3.5,-,N/A,,Mostly Cloudy,340,2012-10-31 22:20:00
12:50 AM,66.2,57.2,73,30.01,3.1,North,3.5,-,N/A,,Mostly Cloudy,350,2012-10-31 22:50:00
1:20 AM,66.2,55.4,68,29.98,3.1,ENE,4.6,-,N/A,,Haze,60,2012-10-31 23:20:00
1:50 AM,64.4,57.2,77,30.01,3.1,SSW,3.5,-,N/A,,Mostly Cloudy,200,2012-10-31 23:50:00
2:20 AM,64.4,55.4,73,29.98,3.1,Variable,1.2,-,N/A,,Mostly Cloudy,0,2012-11-01 00:20:00
2:50 AM,64.4,55.4,73,29.98,3.1,North,2.3,-,N/A,,Haze,360,2012-11-01 00:50:00
3:20 AM,64.4,55.4,73,29.98,3.1,Variable,2.3,-,N/A,,Mostly Cloudy,0,2012-11-01 01:20:00
3:50 AM,62.6,55.4,77,29.98,3.1,Calm,Calm,-,N/A,,Mostly Cloudy,0,2012-11-01 01:50:00
4:20 AM,62.6,55.4,77,29.98,3.1,Variable,1.2,-,N/A,,Mostly Cloudy,0,2012-11-01 02:20:00
5:20 AM,60.8,53.6,77,29.98,3.1,NNW,3.5,-,N/A,,Mostly Cloudy,330,2012-11-01 03:20:00
5:50 AM,62.6,53.6,72,30.01,3.1,NNW,4.6,-,N/A,,Scattered Clouds,340,2012-11-01 03:50:00
6:20 AM,64.4,53.6,68,30.01,3.1,NNW,4.6,-,N/A,,Haze,330,2012-11-01 04:20:00
6:50 AM,64.4,53.6,68,30.01,3.1,Variable,2.3,-,N/A,,Haze,0,2012-11-01 04:50:00
7:20 AM,69.8,55.4,60,30.01,3.1,Variable,2.3,-,N/A,,Haze,0,2012-11-01 05:20:00
7:50 AM,71.6,55.4,57,30.01,3.1,NNE,3.5,-,N/A,,Haze,20,2012-11-01 05:50:00
8:20 AM,73.4,53.6,50,30.01,-9999.0,North,4.6,-,N/A,,Clear,350,2012-11-01 06:20:00
8:50 AM,75.2,53.6,47,30.01,-9999.0,North,4.6,-,N/A,,Clear,350,2012-11-01 06:50:00
9:20 AM,77.0,51.8,41,30.04,-9999.0,NNE,5.8,-,N/A,,Clear,30,2012-11-01 07:20:00
9:50 AM,78.8,51.8,39,30.04,-9999.0,NNE,4.6,-,N/A,,Clear,30,2012-11-01 07:50:00
10:20 AM,80.6,51.8,37,30.01,-9999.0,NNE,4.6,-,N/A,,Clear,30,2012-11-01 08:20:00
10:50 AM,80.6,50.0,34,30.01,-9999.0,NE,4.6,-,N/A,,Clear,40,2012-11-01 08:50:00
11:20 AM,82.4,50.0,32,29.98,-9999.0,ENE,4.6,-,N/A,,Clear,70,2012-11-01 09:20:00
11:50 AM,82.4,48.2,30,29.98,-9999.0,ENE,5.8,-,N/A,,Clear,70,2012-11-01 09:50:00
12:20 PM,84.2,50.0,30,29.98,-9999.0,Variable,2.3,-,N/A,,Clear,0,2012-11-01 10:20:00
12:50 PM,84.2,50.0,30,29.95,-9999.0,North,4.6,-,N/A,,Clear,350,2012-11-01 10:50:00
1:20 PM,86.0,50.0,29,29.95,-9999.0,Variable,2.3,-,N/A,,Clear,0,2012-11-01 11:20:00
1:50 PM,86.0,46.4,25,29.95,-9999.0,Variable,2.3,-,N/A,,Clear,0,2012-11-01 11:50:00
2:20 PM,87.8,44.6,22,29.95,-9999.0,Calm,Calm,-,N/A,,Clear,0,2012-11-01 12:20:00
2:50 PM,86.0,44.6,23,29.92,-9999.0,Variable,2.3,-,N/A,,Clear,0,2012-11-01 12:50:00
3:20 PM,84.2,48.2,29,29.92,-9999.0,Variable,2.3,-,N/A,,Clear,0,2012-11-01 13:20:00
3:50 PM,84.2,50.0,30,29.92,-9999.0,SSW,2.3,-,N/A,,Clear,200,2012-11-01 13:50:00
4:20 PM,80.6,48.2,32,29.92,-9999.0,SW,2.3,-,N/A,,Clear,220,2012-11-01 14:20:00
4:50 PM,77.0,53.6,44,29.92,-9999.0,SW,2.3,-,N/A,,Clear,220,2012-11-01 14:50:00
5:20 PM,75.2,51.8,44,29.92,-9999.0,SSW,2.3,-,N/A,,Clear,210,2012-11-01 15:20:00
5:50 PM,73.4,57.2,57,29.95,-9999.0,SSW,5.8,-,N/A,,Clear,200,2012-11-01 15:50:00
6:20 PM,69.8,57.2,64,29.95,-9999.0,South,4.6,-,N/A,,Clear,170,2012-11-01 16:20:00
6:50 PM,68.0,59.0,73,29.95,-9999.0,Variable,1.2,-,N/A,,Clear,0,2012-11-01 16:50:00
7:20 PM,68.0,59.0,73,29.95,-9999.0,SSW,3.5,-,N/A,,Clear,210,2012-11-01 17:20:00
7:50 PM,68.0,59.0,73,29.95,-9999.0,NW,2.3,-,N/A,,Clear,320,2012-11-01 17:50:00
8:20 PM,69.8,60.8,73,29.95,-9999.0,NW,3.5,-,N/A,,Clear,310,2012-11-01 18:20:00
8:50 PM,69.8,59.0,68,29.98,-9999.0,Variable,2.3,-,N/A,,Clear,0,2012-11-01 18:50:00
9:20 PM,66.2,59.0,78,29.98,-9999.0,Variable,1.2,-,N/A,,Clear,0,2012-11-01 19:20:00
9:50 PM,68.0,59.0,73,29.98,-9999.0,NNW,3.5,-,N/A,,Clear,340,2012-11-01 19:50:00
10:20 PM,66.2,55.4,68,29.98,-9999.0,Variable,2.3,-,N/A,,Clear,0,2012-11-01 20:20:00
10:50 PM,66.2,53.6,64,29.98,-9999.0,NNW,2.3,-,N/A,,Clear,330,2012-11-01 20:50:00
11:20 PM,64.4,55.4,73,29.95,-9999.0,Calm,Calm,-,N/A,,Clear,0,2012-11-01 21:20:00
11:50 PM,62.6,57.2,82,29.95,-9999.0,Variable,1.2,-,N/A,,Clear,0,2012-11-01 21:50:00